Year,Month,Day,Hour,Minute,Value (Times are PST for temperature in C)
2010,03,23,00,00,6.00
2010,03,23,00,01,6.00
2010,03,23,00,02,6.00
2010,03,23,00,03,6.00
2010,03,23,00,04,5.90
2010,03,23,00,05,5.90
2010,03,23,00,06,5.90
2010,03,23,00,07,5.90
2010,03,23,00,08,5.90
2010,03,23,00,09,5.90
2010,03,23,00,10,5.90
2010,03,23,00,11,5.90
2010,03,23,00,12,5.80
2010,03,23,00,13,5.80
2010,03,23,00,14,5.80
2010,03,23,00,15,5.80
2010,03,23,00,16,5.80
2010,03,23,00,17,5.70
2010,03,23,00,18,5.70
2010,03,23,00,19,5.70
2010,03,23,00,20,5.70
2010,03,23,00,21,5.70
2010,03,23,00,22,5.70
2010,03,23,00,23,5.70
2010,03,23,00,24,5.70
2010,03,23,00,25,5.70
2010,03,23,00,26,5.70
2010,03,23,00,27,5.70
2010,03,23,00,28,5.70
2010,03,23,00,29,5.70
2010,03,23,00,30,5.70
2010,03,23,00,31,5.70
2010,03,23,00,32,5.70
2010,03,23,00,33,5.70
2010,03,23,00,34,5.70
2010,03,23,00,35,5.70
2010,03,23,00,36,5.70
2010,03,23,00,37,5.70
2010,03,23,00,38,5.70
2010,03,23,00,39,5.70
2010,03,23,00,40,5.70
2010,03,23,00,41,5.70
2010,03,23,00,42,5.70
2010,03,23,00,43,5.70
2010,03,23,00,44,5.70
2010,03,23,00,45,5.70
2010,03,23,00,46,5.70
2010,03,23,00,47,5.70
2010,03,23,00,48,5.70
2010,03,23,00,49,5.70
2010,03,23,00,50,5.70
2010,03,23,00,51,5.70
2010,03,23,00,52,5.70
2010,03,23,00,53,5.70
2010,03,23,00,54,5.70
2010,03,23,00,55,5.70
2010,03,23,00,56,5.70
2010,03,23,00,57,5.70
2010,03,23,00,58,5.70
2010,03,23,00,59,5.70
2010,03,23,01,00,5.70
2010,03,23,01,01,5.70
2010,03,23,01,02,5.70
2010,03,23,01,03,5.70
2010,03,23,01,04,5.70
2010,03,23,01,05,5.70
2010,03,23,01,06,5.70
2010,03,23,01,07,5.70
2010,03,23,01,08,5.70
2010,03,23,01,09,5.70
2010,03,23,01,10,5.70
2010,03,23,01,11,5.60
2010,03,23,01,12,5.60
2010,03,23,01,13,5.60
2010,03,23,01,14,5.60
2010,03,23,01,15,5.60
2010,03,23,01,16,5.60
2010,03,23,01,17,5.60
2010,03,23,01,18,5.60
2010,03,23,01,19,5.60
2010,03,23,01,20,5.60
2010,03,23,01,21,5.60
2010,03,23,01,22,5.60
2010,03,23,01,23,5.60
2010,03,23,01,24,5.60
2010,03,23,01,25,5.60
2010,03,23,01,26,5.60
2010,03,23,01,27,5.60
2010,03,23,01,28,5.60
2010,03,23,01,29,5.60
2010,03,23,01,30,5.50
2010,03,23,01,31,5.50
2010,03,23,01,32,5.50
2010,03,23,01,33,5.50
2010,03,23,01,34,5.50
2010,03,23,01,35,5.50
2010,03,23,01,36,5.40
2010,03,23,01,37,5.40
2010,03,23,01,38,5.40
2010,03,23,01,39,5.40
2010,03,23,01,40,5.40
2010,03,23,01,41,5.40
2010,03,23,01,42,5.40
2010,03,23,01,43,5.50
2010,03,23,01,44,5.50
2010,03,23,01,45,5.50
2010,03,23,01,46,5.50
2010,03,23,01,47,5.50
2010,03,23,01,48,5.40
2010,03,23,01,49,5.40
2010,03,23,01,50,5.40
2010,03,23,01,51,5.40
2010,03,23,01,52,5.40
2010,03,23,01,53,5.40
2010,03,23,01,54,5.30
2010,03,23,01,55,5.30
2010,03,23,01,56,5.30
2010,03,23,01,57,5.30
2010,03,23,01,58,5.30
2010,03,23,01,59,5.30
2010,03,23,02,00,5.20
2010,03,23,02,01,5.20
2010,03,23,02,02,5.20
2010,03,23,02,03,5.10
2010,03,23,02,04,5.10
2010,03,23,02,05,5.10
2010,03,23,02,06,5.10
2010,03,23,02,07,5.00
2010,03,23,02,08,5.00
2010,03,23,02,09,4.90
2010,03,23,02,10,4.90
2010,03,23,02,11,4.90
2010,03,23,02,12,4.90
2010,03,23,02,13,4.90
2010,03,23,02,14,4.90
2010,03,23,02,15,4.90
2010,03,23,02,16,4.90
2010,03,23,02,17,4.90
2010,03,23,02,18,4.90
2010,03,23,02,19,4.90
2010,03,23,02,20,4.90
2010,03,23,02,21,4.90
2010,03,23,02,22,4.90
2010,03,23,02,23,4.90
2010,03,23,02,24,4.90
2010,03,23,02,25,4.80
2010,03,23,02,26,4.80
2010,03,23,02,27,4.80
2010,03,23,02,28,4.80
2010,03,23,02,29,4.80
2010,03,23,02,30,4.80
2010,03,23,02,31,4.80
2010,03,23,02,32,4.80
2010,03,23,02,33,4.80
2010,03,23,02,34,4.80
2010,03,23,02,35,4.90
2010,03,23,02,36,4.90
2010,03,23,02,37,4.90
2010,03,23,02,38,4.90
2010,03,23,02,39,4.80
2010,03,23,02,40,4.80
2010,03,23,02,41,4.80
2010,03,23,02,42,4.80
2010,03,23,02,43,4.80
2010,03,23,02,44,4.80
2010,03,23,02,45,4.80
2010,03,23,02,46,4.80
2010,03,23,02,47,4.80
2010,03,23,02,48,4.80
2010,03,23,02,49,4.70
2010,03,23,02,50,4.70
2010,03,23,02,51,4.70
2010,03,23,02,52,4.70
2010,03,23,02,53,4.70
2010,03,23,02,54,4.70
2010,03,23,02,55,4.70
2010,03,23,02,56,4.70
2010,03,23,02,57,4.70
2010,03,23,02,58,4.80
2010,03,23,02,59,4.80
2010,03,23,03,00,4.80
2010,03,23,03,01,4.80
2010,03,23,03,02,4.80
2010,03,23,03,03,4.80
2010,03,23,03,04,4.80
2010,03,23,03,05,4.90
2010,03,23,03,06,4.90
2010,03,23,03,07,4.90
2010,03,23,03,08,4.90
2010,03,23,03,09,4.90
2010,03,23,03,10,4.90
2010,03,23,03,11,4.90
2010,03,23,03,12,4.90
2010,03,23,03,13,4.90
2010,03,23,03,14,4.90
2010,03,23,03,15,4.80
2010,03,23,03,16,4.80
2010,03,23,03,17,4.80
2010,03,23,03,18,4.80
2010,03,23,03,19,4.80
2010,03,23,03,20,4.80
2010,03,23,03,21,4.80
2010,03,23,03,22,4.80
2010,03,23,03,23,4.80
2010,03,23,03,24,4.80
2010,03,23,03,25,4.80
2010,03,23,03,26,4.80
2010,03,23,03,27,4.70
2010,03,23,03,28,4.70
2010,03,23,03,29,4.70
2010,03,23,03,30,4.70
2010,03,23,03,31,4.60
2010,03,23,03,32,4.60
2010,03,23,03,33,4.50
2010,03,23,03,34,4.40
2010,03,23,03,35,4.40
2010,03,23,03,36,4.30
2010,03,23,03,37,4.20
2010,03,23,03,38,4.20
2010,03,23,03,39,4.10
2010,03,23,03,40,4.10
2010,03,23,03,41,4.10
2010,03,23,03,42,4.00
2010,03,23,03,43,3.90
2010,03,23,03,44,3.90
2010,03,23,03,45,3.90
2010,03,23,03,46,3.90
2010,03,23,03,47,3.80
2010,03,23,03,48,3.80
2010,03,23,03,49,3.80
2010,03,23,03,50,3.80
2010,03,23,03,51,3.80
2010,03,23,03,52,3.70
2010,03,23,03,53,3.70
2010,03,23,03,54,3.70
2010,03,23,03,55,3.70
2010,03,23,03,56,3.70
2010,03,23,03,57,3.70
2010,03,23,03,58,3.70
2010,03,23,03,59,3.70
2010,03,23,04,00,3.70
2010,03,23,04,01,3.70
2010,03,23,04,02,3.70
2010,03,23,04,03,3.70
2010,03,23,04,07,3.60
2010,03,23,04,08,3.60
2010,03,23,04,09,3.60
2010,03,23,04,10,3.60
2010,03,23,04,11,3.60
2010,03,23,04,12,3.50
2010,03,23,04,13,3.50
2010,03,23,04,14,3.50
2010,03,23,04,15,3.50
2010,03,23,04,16,3.50
2010,03,23,04,17,3.40
2010,03,23,04,18,3.40
2010,03,23,04,19,3.40
2010,03,23,04,20,3.40
2010,03,23,04,21,3.40
2010,03,23,04,22,3.40
2010,03,23,04,23,3.40
2010,03,23,04,24,3.40
2010,03,23,04,25,3.40
2010,03,23,04,26,3.40
2010,03,23,04,27,3.40
2010,03,23,04,28,3.40
2010,03,23,04,29,3.40
2010,03,23,04,30,3.40
2010,03,23,04,31,3.40
2010,03,23,04,32,3.30
2010,03,23,04,33,3.30
2010,03,23,04,34,3.30
2010,03,23,04,35,3.30
2010,03,23,04,36,3.30
2010,03,23,04,37,3.30
2010,03,23,04,38,3.30
2010,03,23,04,39,3.30
2010,03,23,04,40,3.30
2010,03,23,04,41,3.40
2010,03,23,04,42,3.40
2010,03,23,04,43,3.40
2010,03,23,04,44,3.50
2010,03,23,04,45,3.50
2010,03,23,04,46,3.50
2010,03,23,04,47,3.60
2010,03,23,04,48,3.60
2010,03,23,04,49,3.60
2010,03,23,04,50,3.60
2010,03,23,04,51,3.70
2010,03,23,04,52,3.70
2010,03,23,04,53,3.70
2010,03,23,04,54,3.70
2010,03,23,04,55,3.70
2010,03,23,04,56,3.80
2010,03,23,04,57,3.80
2010,03,23,04,58,3.80
2010,03,23,04,59,3.80
2010,03,23,05,00,3.80
2010,03,23,05,01,3.80
2010,03,23,05,02,3.80
2010,03,23,05,03,3.80
2010,03,23,05,04,3.80
2010,03,23,05,05,3.80
2010,03,23,05,06,3.80
2010,03,23,05,07,3.80
2010,03,23,05,08,3.80
2010,03,23,05,09,3.80
2010,03,23,05,10,3.80
2010,03,23,05,11,3.80
2010,03,23,05,12,3.80
2010,03,23,05,13,3.80
2010,03,23,05,14,3.80
2010,03,23,05,15,3.80
2010,03,23,05,16,3.80
2010,03,23,05,17,3.80
2010,03,23,05,18,3.80
2010,03,23,05,19,3.80
2010,03,23,05,20,3.80
2010,03,23,05,21,3.80
2010,03,23,05,22,3.80
2010,03,23,05,23,3.80
2010,03,23,05,24,3.80
2010,03,23,05,25,3.80
2010,03,23,05,26,3.80
2010,03,23,05,27,3.80
2010,03,23,05,28,3.80
2010,03,23,05,29,3.80
2010,03,23,05,30,3.80
2010,03,23,05,31,3.80
2010,03,23,05,32,3.80
2010,03,23,05,33,3.80
2010,03,23,05,34,3.80
2010,03,23,05,35,3.80
2010,03,23,05,36,3.80
2010,03,23,05,37,3.70
2010,03,23,05,38,3.70
2010,03,23,05,39,3.70
2010,03,23,05,40,3.70
2010,03,23,05,41,3.70
2010,03,23,05,42,3.70
2010,03,23,05,43,3.70
2010,03,23,05,44,3.60
2010,03,23,05,45,3.60
2010,03,23,05,46,3.60
2010,03,23,05,47,3.60
2010,03,23,05,48,3.60
2010,03,23,05,49,3.60
2010,03,23,05,50,3.50
2010,03,23,05,51,3.50
2010,03,23,05,52,3.50
2010,03,23,05,53,3.50
2010,03,23,05,54,3.50
2010,03,23,05,55,3.40
2010,03,23,05,56,3.40
2010,03,23,05,57,3.40
2010,03,23,05,58,3.40
2010,03,23,05,59,3.40
2010,03,23,06,00,3.40
2010,03,23,06,01,3.40
2010,03,23,06,02,3.40
2010,03,23,06,03,3.40
2010,03,23,06,04,3.30
2010,03,23,06,05,3.30
2010,03,23,06,06,3.30
2010,03,23,06,07,3.30
2010,03,23,06,08,3.30
2010,03,23,06,09,3.30
2010,03,23,06,10,3.30
2010,03,23,06,11,3.20
2010,03,23,06,12,3.20
2010,03,23,06,13,3.20
2010,03,23,06,14,3.20
2010,03,23,06,15,3.20
2010,03,23,06,16,3.20
2010,03,23,06,17,3.20
2010,03,23,06,18,3.20
2010,03,23,06,19,3.10
2010,03,23,06,20,3.10
2010,03,23,06,21,3.10
2010,03,23,06,22,3.10
2010,03,23,06,23,3.10
2010,03,23,06,24,3.10
2010,03,23,06,25,3.10
2010,03,23,06,26,3.10
2010,03,23,06,27,3.10
2010,03,23,06,28,3.10
2010,03,23,06,29,3.10
2010,03,23,06,30,3.10
2010,03,23,06,31,3.10
2010,03,23,06,32,3.10
2010,03,23,06,33,3.10
2010,03,23,06,34,3.10
2010,03,23,06,35,3.10
2010,03,23,06,36,3.10
2010,03,23,06,37,3.00
2010,03,23,06,38,3.00
2010,03,23,06,39,3.00
2010,03,23,06,40,3.00
2010,03,23,06,41,3.00
2010,03,23,06,42,3.00
2010,03,23,06,43,3.00
2010,03,23,06,44,3.00
2010,03,23,06,45,3.00
2010,03,23,06,46,3.00
2010,03,23,06,47,3.00
2010,03,23,06,48,3.00
2010,03,23,06,49,3.00
2010,03,23,06,50,3.00
2010,03,23,06,51,3.00
2010,03,23,06,52,3.00
2010,03,23,06,53,3.00
2010,03,23,06,54,3.00
2010,03,23,06,55,3.00
2010,03,23,06,56,3.10
2010,03,23,06,57,3.10
2010,03,23,06,58,3.10
2010,03,23,06,59,3.10
2010,03,23,07,00,3.10
2010,03,23,07,01,3.20
2010,03,23,07,02,3.20
2010,03,23,07,03,3.10
2010,03,23,07,04,3.10
2010,03,23,07,05,3.10
2010,03,23,07,06,3.10
2010,03,23,07,07,3.10
2010,03,23,07,08,3.10
2010,03,23,07,09,3.10
2010,03,23,07,10,3.00
2010,03,23,07,11,3.00
2010,03,23,07,12,3.00
2010,03,23,07,13,2.90
2010,03,23,07,14,2.90
2010,03,23,07,15,2.90
2010,03,23,07,16,2.90
2010,03,23,07,17,2.90
2010,03,23,07,18,2.80
2010,03,23,07,19,2.80
2010,03,23,07,20,2.80
2010,03,23,07,21,2.80
2010,03,23,07,22,2.70
2010,03,23,07,23,2.70
2010,03,23,07,24,2.70
2010,03,23,07,25,2.60
2010,03,23,07,26,2.60
2010,03,23,07,27,2.50
2010,03,23,07,28,2.40
2010,03,23,07,29,2.40
2010,03,23,07,30,2.30
2010,03,23,07,31,2.30
2010,03,23,07,32,2.30
2010,03,23,07,33,2.20
2010,03,23,07,34,2.20
2010,03,23,07,35,2.10
2010,03,23,07,36,2.10
2010,03,23,07,37,2.10
2010,03,23,07,38,2.00
2010,03,23,07,39,2.00
2010,03,23,07,40,2.00
2010,03,23,07,41,1.90
2010,03,23,07,42,1.90
2010,03,23,07,43,1.80
2010,03,23,07,44,1.80
2010,03,23,07,45,1.80
2010,03,23,07,46,1.80
2010,03,23,07,47,1.80
2010,03,23,07,48,1.80
2010,03,23,07,49,1.80
2010,03,23,07,50,1.80
2010,03,23,07,51,1.80
2010,03,23,07,52,1.80
2010,03,23,07,53,1.80
2010,03,23,07,54,1.80
2010,03,23,07,55,1.80
2010,03,23,07,56,1.80
2010,03,23,07,57,1.80
2010,03,23,07,58,1.80
2010,03,23,07,59,1.80
2010,03,23,08,00,1.80
2010,03,23,08,01,1.80
2010,03,23,08,02,1.80
2010,03,23,08,03,1.80
2010,03,23,08,04,1.80
2010,03,23,08,05,1.80
2010,03,23,08,06,1.80
2010,03,23,08,07,1.80
2010,03,23,08,08,1.80
2010,03,23,08,09,1.80
2010,03,23,08,10,1.80
2010,03,23,08,11,1.80
2010,03,23,08,12,1.80
2010,03,23,08,13,1.80
2010,03,23,08,14,1.90
2010,03,23,08,15,1.90
2010,03,23,08,16,1.90
2010,03,23,08,17,2.00
2010,03,23,08,18,2.00
2010,03,23,08,19,2.00
2010,03,23,08,20,2.10
2010,03,23,08,21,2.10
2010,03,23,08,22,2.20
2010,03,23,08,23,2.20
2010,03,23,08,24,2.30
2010,03,23,08,25,2.30
2010,03,23,08,26,2.30
2010,03,23,08,27,2.40
2010,03,23,08,28,2.40
2010,03,23,08,29,2.40
2010,03,23,08,30,2.40
2010,03,23,08,31,2.50
2010,03,23,08,32,2.50
2010,03,23,08,33,2.60
2010,03,23,08,34,2.60
2010,03,23,08,35,2.70
2010,03,23,08,36,2.70
2010,03,23,08,37,2.80
2010,03,23,08,38,2.80
2010,03,23,08,39,2.90
2010,03,23,08,40,2.90
2010,03,23,08,41,3.00
2010,03,23,08,42,3.10
2010,03,23,08,43,3.10
2010,03,23,08,44,3.20
2010,03,23,08,45,3.20
2010,03,23,08,46,3.30
2010,03,23,08,47,3.30
2010,03,23,08,48,3.40
2010,03,23,08,49,3.50
2010,03,23,08,50,3.50
2010,03,23,08,51,3.60
2010,03,23,08,52,3.70
2010,03,23,08,53,3.70
2010,03,23,08,54,3.80
2010,03,23,08,55,3.90
2010,03,23,08,56,3.90
2010,03,23,08,57,4.00
2010,03,23,08,58,4.00
2010,03,23,08,59,4.10
2010,03,23,09,00,4.20
2010,03,23,09,01,4.20
2010,03,23,09,02,4.30
2010,03,23,09,03,4.30
2010,03,23,09,04,4.40
2010,03,23,09,05,4.50
2010,03,23,09,06,4.50
2010,03,23,09,07,4.60
2010,03,23,09,08,4.70
2010,03,23,09,09,4.70
2010,03,23,09,10,4.80
2010,03,23,09,11,4.80
2010,03,23,09,12,4.90
2010,03,23,09,13,5.00
2010,03,23,09,14,5.10
2010,03,23,09,15,5.10
2010,03,23,09,16,5.20
2010,03,23,09,17,5.20
2010,03,23,09,18,5.30
2010,03,23,09,19,5.30
2010,03,23,09,20,5.30
2010,03,23,09,21,5.40
2010,03,23,09,22,5.40
2010,03,23,09,23,5.40
2010,03,23,09,24,5.50
2010,03,23,09,25,5.60
2010,03,23,09,26,5.60
2010,03,23,09,27,5.60
2010,03,23,09,28,5.70
2010,03,23,09,29,5.70
2010,03,23,09,30,5.80
2010,03,23,09,31,5.80
2010,03,23,09,32,5.80
2010,03,23,09,33,5.90
2010,03,23,09,34,5.90
2010,03,23,09,35,5.90
2010,03,23,09,36,6.00
2010,03,23,09,37,6.00
2010,03,23,09,38,6.10
2010,03,23,09,39,6.10
2010,03,23,09,40,6.20
2010,03,23,09,41,6.20
2010,03,23,09,42,6.30
2010,03,23,09,43,6.30
2010,03,23,09,44,6.30
2010,03,23,09,45,6.40
2010,03,23,09,46,6.40
2010,03,23,09,47,6.50
2010,03,23,09,48,6.50
2010,03,23,09,49,6.60
2010,03,23,09,50,6.60
2010,03,23,09,51,6.70
2010,03,23,09,52,6.70
2010,03,23,09,53,6.70
2010,03,23,09,54,6.80
2010,03,23,09,55,6.80
2010,03,23,09,56,6.90
2010,03,23,09,57,6.90
2010,03,23,09,58,7.00
2010,03,23,09,59,7.00
2010,03,23,10,00,7.10
2010,03,23,10,01,7.10
2010,03,23,10,02,7.20
2010,03,23,10,03,7.20
2010,03,23,10,04,7.20
2010,03,23,10,05,7.20
2010,03,23,10,06,7.20
2010,03,23,10,07,7.30
2010,03,23,10,08,7.30
2010,03,23,10,09,7.40
2010,03,23,10,10,7.40
2010,03,23,10,11,7.40
2010,03,23,10,12,7.40
2010,03,23,10,13,7.40
2010,03,23,10,14,7.40
2010,03,23,10,15,7.40
2010,03,23,10,16,7.30
2010,03,23,10,17,7.30
2010,03,23,10,18,7.30
2010,03,23,10,19,7.30
2010,03,23,10,20,7.40
2010,03,23,10,21,7.40
2010,03,23,10,22,7.40
2010,03,23,10,23,7.40
2010,03,23,10,24,7.40
2010,03,23,10,25,7.30
2010,03,23,10,26,7.30
2010,03,23,10,27,7.30
2010,03,23,10,28,7.30
2010,03,23,10,29,7.40
2010,03,23,10,30,7.40
2010,03,23,10,31,7.50
2010,03,23,10,32,7.50
2010,03,23,10,33,7.60
2010,03,23,10,34,7.60
2010,03,23,10,35,7.70
2010,03,23,10,36,7.80
2010,03,23,10,37,7.90
2010,03,23,10,38,7.90
2010,03,23,10,39,8.00
2010,03,23,10,40,8.10
2010,03,23,10,41,8.10
2010,03,23,10,42,8.20
2010,03,23,10,43,8.30
2010,03,23,10,44,8.30
2010,03,23,10,45,8.30
2010,03,23,10,46,8.30
2010,03,23,10,47,8.30
2010,03,23,10,48,8.30
2010,03,23,10,49,8.20
2010,03,23,10,50,8.20
2010,03,23,10,51,8.20
2010,03,23,10,52,8.30
2010,03,23,10,53,8.30
2010,03,23,10,54,8.30
2010,03,23,10,55,8.30
2010,03,23,10,56,8.30
2010,03,23,10,57,8.30
2010,03,23,10,58,8.30
2010,03,23,10,59,8.30
2010,03,23,11,00,8.30
2010,03,23,11,01,8.30
2010,03,23,11,02,8.20
2010,03,23,11,03,8.20
2010,03,23,11,04,8.10
2010,03,23,11,05,8.10
2010,03,23,11,06,8.10
2010,03,23,11,07,8.20
2010,03,23,11,08,8.20
2010,03,23,11,09,8.20
2010,03,23,11,10,8.30
2010,03,23,11,11,8.30
2010,03,23,11,12,8.30
2010,03,23,11,13,8.30
2010,03,23,11,14,8.30
2010,03,23,11,15,8.30
2010,03,23,11,16,8.30
2010,03,23,11,17,8.30
2010,03,23,11,18,8.30
2010,03,23,11,19,8.30
2010,03,23,11,20,8.30
2010,03,23,11,21,8.30
2010,03,23,11,22,8.30
2010,03,23,11,23,8.30
2010,03,23,11,24,8.30
2010,03,23,11,25,8.40
2010,03,23,11,26,8.40
2010,03,23,11,27,8.40
2010,03,23,11,28,8.40
2010,03,23,11,29,8.50
2010,03,23,11,30,8.60
2010,03,23,11,31,8.60
2010,03,23,11,32,8.70
2010,03,23,11,33,8.80
2010,03,23,11,34,9.00
2010,03,23,11,35,9.10
2010,03,23,11,36,9.20
2010,03,23,11,37,9.30
2010,03,23,11,38,9.40
2010,03,23,11,39,9.50
2010,03,23,11,40,9.60
2010,03,23,11,41,9.70
2010,03,23,11,42,9.80
2010,03,23,11,43,9.80
2010,03,23,11,44,9.70
2010,03,23,11,45,9.80
2010,03,23,11,46,9.80
2010,03,23,11,47,9.80
2010,03,23,11,48,9.80
2010,03,23,11,49,9.80
2010,03,23,11,50,9.80
2010,03,23,11,51,9.80
2010,03,23,11,52,9.80
2010,03,23,11,53,9.70
2010,03,23,11,54,9.70
2010,03,23,11,55,9.80
2010,03,23,11,56,9.80
2010,03,23,11,57,9.90
2010,03,23,11,58,10.00
2010,03,23,11,59,10.10
2010,03,23,12,00,10.20
2010,03,23,12,01,10.30
2010,03,23,12,02,10.50
2010,03,23,12,03,10.50
2010,03,23,12,04,10.60
2010,03,23,12,05,10.60
2010,03,23,12,06,10.60
2010,03,23,12,07,10.60
2010,03,23,12,08,10.60
2010,03,23,12,09,10.60
2010,03,23,12,10,10.70
2010,03,23,12,11,10.60
2010,03,23,12,12,10.50
2010,03,23,12,13,10.40
2010,03,23,12,14,10.40
2010,03,23,12,15,10.40
2010,03,23,12,16,10.30
2010,03,23,12,17,10.30
2010,03,23,12,18,10.30
2010,03,23,12,19,10.30
2010,03,23,12,20,10.30
2010,03,23,12,21,10.30
2010,03,23,12,22,10.40
2010,03,23,12,23,10.50
2010,03,23,12,24,10.50
2010,03,23,12,25,10.60
2010,03,23,12,26,10.60
2010,03,23,12,27,10.50
2010,03,23,12,28,10.50
2010,03,23,12,29,10.50
2010,03,23,12,30,10.50
2010,03,23,12,31,10.60
2010,03,23,12,32,10.60
2010,03,23,12,33,10.60
2010,03,23,12,34,10.60
2010,03,23,12,35,10.70
2010,03,23,12,36,10.70
2010,03,23,12,37,10.70
2010,03,23,12,38,10.60
2010,03,23,12,39,10.70
2010,03,23,12,40,10.70
2010,03,23,12,41,10.70
2010,03,23,12,42,10.70
2010,03,23,12,43,10.80
2010,03,23,12,44,10.80
2010,03,23,12,45,10.90
2010,03,23,12,46,10.90
2010,03,23,12,47,10.80
2010,03,23,12,48,10.70
2010,03,23,12,49,10.60
2010,03,23,12,50,10.60
2010,03,23,12,51,10.60
2010,03,23,12,52,10.60
2010,03,23,12,53,10.60
2010,03,23,12,54,10.70
2010,03,23,12,55,10.70
2010,03,23,12,56,10.80
2010,03,23,12,57,10.80
2010,03,23,12,58,10.80
2010,03,23,12,59,10.90
2010,03,23,13,00,10.90
2010,03,23,13,01,11.00
2010,03,23,13,02,11.10
2010,03,23,13,03,11.10
2010,03,23,13,04,11.10
2010,03,23,13,05,11.20
2010,03,23,13,06,11.20
2010,03,23,13,07,11.10
2010,03,23,13,08,11.10
2010,03,23,13,09,11.10
2010,03,23,13,10,11.00
2010,03,23,13,11,10.90
2010,03,23,13,12,10.80
2010,03,23,13,13,10.50
2010,03,23,13,14,10.30
2010,03,23,13,15,10.20
2010,03,23,13,16,10.10
2010,03,23,13,17,10.10
2010,03,23,13,18,10.20
2010,03,23,13,19,10.20
2010,03,23,13,20,10.10
2010,03,23,13,21,10.10
2010,03,23,13,22,10.10
2010,03,23,13,23,10.10
2010,03,23,13,24,10.10
2010,03,23,13,25,10.20
2010,03,23,13,26,10.20
2010,03,23,13,27,10.30
2010,03,23,13,28,10.30
2010,03,23,13,29,10.40
2010,03,23,13,30,10.50
2010,03,23,13,31,10.50
2010,03,23,13,32,10.60
2010,03,23,13,33,10.70
2010,03,23,13,34,10.70
2010,03,23,13,35,10.80
2010,03,23,13,36,10.90
2010,03,23,13,37,11.10
2010,03,23,13,38,11.10
2010,03,23,13,39,11.20
2010,03,23,13,40,11.20
2010,03,23,13,41,11.20
2010,03,23,13,42,11.20
2010,03,23,13,43,11.20
2010,03,23,13,44,11.10
2010,03,23,13,45,11.10
2010,03,23,13,46,11.10
2010,03,23,13,47,11.10
2010,03,23,13,48,11.10
2010,03,23,13,49,11.10
2010,03,23,13,50,11.20
2010,03,23,13,51,11.20
2010,03,23,13,52,11.20
2010,03,23,13,53,11.20
2010,03,23,13,54,11.20
2010,03,23,13,55,11.20
2010,03,23,13,56,11.20
2010,03,23,13,57,11.20
2010,03,23,13,58,11.20
2010,03,23,13,59,11.20
2010,03,23,14,00,11.30
2010,03,23,14,01,11.30
2010,03,23,14,02,11.30
2010,03,23,14,03,11.30
2010,03,23,14,04,11.40
2010,03,23,14,05,11.50
2010,03,23,14,06,11.50
2010,03,23,14,07,11.50
2010,03,23,14,08,11.40
2010,03,23,14,09,11.40
2010,03,23,14,10,11.40
2010,03,23,14,11,11.50
2010,03,23,14,12,11.60
2010,03,23,14,13,11.60
2010,03,23,14,14,11.50
2010,03,23,14,15,11.50
2010,03,23,14,16,11.40
2010,03,23,14,17,11.40
2010,03,23,14,18,11.40
2010,03,23,14,19,11.40
2010,03,23,14,20,11.50
2010,03,23,14,21,11.50
2010,03,23,14,22,11.60
2010,03,23,14,23,11.60
2010,03,23,14,24,11.60
2010,03,23,14,25,11.60
2010,03,23,14,26,11.60
2010,03,23,14,27,11.70
2010,03,23,14,28,11.70
2010,03,23,14,29,11.70
2010,03,23,14,30,11.60
2010,03,23,14,31,11.60
2010,03,23,14,32,11.50
2010,03,23,14,33,11.40
2010,03,23,14,34,11.30
2010,03,23,14,35,11.30
2010,03,23,14,36,11.40
2010,03,23,14,37,11.40
2010,03,23,14,38,11.50
2010,03,23,14,39,11.40
2010,03,23,14,40,11.40
2010,03,23,14,41,11.40
2010,03,23,14,42,11.40
2010,03,23,14,43,11.40
2010,03,23,14,44,11.30
2010,03,23,14,45,11.30
2010,03,23,14,46,11.20
2010,03,23,14,47,11.20
2010,03,23,14,48,11.10
2010,03,23,14,49,11.10
2010,03,23,14,50,11.00
2010,03,23,14,51,10.90
2010,03,23,14,52,10.90
2010,03,23,14,53,10.80
2010,03,23,14,54,10.80
2010,03,23,14,55,10.90
2010,03,23,14,56,11.00
2010,03,23,14,57,11.00
2010,03,23,14,58,11.10
2010,03,23,14,59,11.20
2010,03,23,15,00,11.30
2010,03,23,15,01,11.30
2010,03,23,15,02,11.40
2010,03,23,15,03,11.40
2010,03,23,15,04,11.40
2010,03,23,15,05,11.40
2010,03,23,15,06,11.30
2010,03,23,15,07,11.30
2010,03,23,15,08,11.40
2010,03,23,15,09,11.50
2010,03,23,15,10,11.50
2010,03,23,15,11,11.50
2010,03,23,15,12,11.60
2010,03,23,15,13,11.60
2010,03,23,15,14,11.60
2010,03,23,15,15,11.50
2010,03,23,15,16,11.50
2010,03,23,15,17,11.40
2010,03,23,15,18,11.40
2010,03,23,15,19,11.40
2010,03,23,15,20,11.40
2010,03,23,15,21,11.40
2010,03,23,15,22,11.50
2010,03,23,15,23,11.40
2010,03,23,15,24,11.40
2010,03,23,15,25,11.40
2010,03,23,15,26,11.40
2010,03,23,15,27,11.30
2010,03,23,15,28,11.30
2010,03,23,15,29,11.30
2010,03,23,15,30,11.30
2010,03,23,15,31,11.30
2010,03,23,15,32,11.20
2010,03,23,15,33,11.30
2010,03,23,15,34,11.30
2010,03,23,15,35,11.30
2010,03,23,15,36,11.30
2010,03,23,15,37,11.30
2010,03,23,15,38,11.20
2010,03,23,15,39,11.20
2010,03,23,15,40,11.10
2010,03,23,15,41,11.00
2010,03,23,15,42,11.00
2010,03,23,15,43,10.90
2010,03,23,15,44,10.80
2010,03,23,15,45,10.80
2010,03,23,15,46,10.80
2010,03,23,15,47,10.80
2010,03,23,15,48,10.90
2010,03,23,15,49,10.90
2010,03,23,15,50,10.90
2010,03,23,15,51,10.90
2010,03,23,15,52,11.00
2010,03,23,15,53,11.00
2010,03,23,15,54,11.00
2010,03,23,15,55,11.00
2010,03,23,15,56,11.00
2010,03,23,15,57,11.00
2010,03,23,15,58,11.00
2010,03,23,15,59,11.00
2010,03,23,16,00,11.00
2010,03,23,16,01,11.00
2010,03,23,16,02,11.00
2010,03,23,16,03,11.00
2010,03,23,16,04,11.00
2010,03,23,16,05,11.10
2010,03,23,16,06,11.10
2010,03,23,16,07,11.00
2010,03,23,16,08,11.00
2010,03,23,16,09,11.00
2010,03,23,16,10,11.00
2010,03,23,16,11,11.00
2010,03,23,16,12,10.90
2010,03,23,16,13,10.90
2010,03,23,16,14,10.90
2010,03,23,16,15,11.00
2010,03,23,16,16,11.00
2010,03,23,16,17,11.10
2010,03,23,16,18,11.10
2010,03,23,16,19,11.10
2010,03,23,16,20,11.20
2010,03,23,16,21,11.20
2010,03,23,16,22,11.20
2010,03,23,16,23,11.30
2010,03,23,16,24,11.30
2010,03,23,16,25,11.30
2010,03,23,16,26,11.30
2010,03,23,16,27,11.30
2010,03,23,16,28,11.30
2010,03,23,16,29,11.30
2010,03,23,16,30,11.30
2010,03,23,16,31,11.30
2010,03,23,16,32,11.40
2010,03,23,16,33,11.40
2010,03,23,16,34,11.40
2010,03,23,16,35,11.30
2010,03,23,16,36,11.30
2010,03,23,16,37,11.30
2010,03,23,16,38,11.30
2010,03,23,16,39,11.30
2010,03,23,16,40,11.30
2010,03,23,16,41,11.30
2010,03,23,16,42,11.30
2010,03,23,16,43,11.30
2010,03,23,16,44,11.30
2010,03,23,16,45,11.30
2010,03,23,16,46,11.30
2010,03,23,16,47,11.20
2010,03,23,16,48,11.30
2010,03,23,16,49,11.30
2010,03,23,16,50,11.30
2010,03,23,16,51,11.30
2010,03,23,16,52,11.30
2010,03,23,16,53,11.30
2010,03,23,16,54,11.30
2010,03,23,16,55,11.40
2010,03,23,16,56,11.30
2010,03,23,16,57,11.30
2010,03,23,16,58,11.30
2010,03,23,16,59,11.20
2010,03,23,17,00,11.30
2010,03,23,17,01,11.30
2010,03,23,17,02,11.30
2010,03,23,17,03,11.30
2010,03,23,17,04,11.20
2010,03,23,17,05,11.20
2010,03,23,17,06,11.10
2010,03,23,17,07,11.00
2010,03,23,17,08,11.00
2010,03,23,17,09,10.90
2010,03,23,17,10,10.90
2010,03,23,17,11,10.90
2010,03,23,17,12,10.90
2010,03,23,17,13,10.90
2010,03,23,17,14,10.90
2010,03,23,17,15,11.00
2010,03,23,17,16,11.00
2010,03,23,17,17,11.00
2010,03,23,17,18,11.10
2010,03,23,17,19,11.10
2010,03,23,17,20,11.10
2010,03,23,17,21,11.00
2010,03,23,17,22,11.00
2010,03,23,17,23,11.00
2010,03,23,17,24,10.90
2010,03,23,17,25,10.80
2010,03,23,17,26,10.80
2010,03,23,17,27,10.80
2010,03,23,17,28,10.80
2010,03,23,17,29,10.80
2010,03,23,17,30,10.80
2010,03,23,17,31,10.80
2010,03,23,17,32,10.80
2010,03,23,17,33,10.80
2010,03,23,17,34,10.80
2010,03,23,17,35,10.80
2010,03,23,17,36,10.80
2010,03,23,17,37,10.80
2010,03,23,17,38,10.80
2010,03,23,17,39,10.80
2010,03,23,17,40,10.80
2010,03,23,17,41,10.80
2010,03,23,17,42,10.80
2010,03,23,17,43,10.80
2010,03,23,17,44,10.80
2010,03,23,17,45,10.80
2010,03,23,17,46,10.80
2010,03,23,17,47,10.80
2010,03,23,17,48,10.80
2010,03,23,17,49,10.70
2010,03,23,17,50,10.70
2010,03,23,17,51,10.70
2010,03,23,17,52,10.70
2010,03,23,17,53,10.70